Photometre #642[NE_1.2] Dushanbe AOT

File : 20220824_642.hum

24/08/2022,01:33:28,TEMP=17.8,BA=5.24,STAT.A=0.0,ExtBa=13.56
24/08/2022,01:36:44,TEMP=18.1,BA=5.24,STAT.A=0.0,ExtBa=13.56
24/08/2022,01:40:36,TEMP=18.2,BA=5.24,STAT.A=0.0,ExtBa=13.56
24/08/2022,01:45:08,TEMP=18.3,BA=5.24,STAT.A=0.0,ExtBa=13.56
24/08/2022,01:50:35,TEMP=18.5,BA=5.28,STAT.A=0.0,ExtBa=13.56
24/08/2022,01:57:16,TEMP=18.6,BA=5.28,STAT.A=0.0,ExtBa=13.56
24/08/2022,02:05:40,TEMP=18.8,BA=5.24,STAT.B=0.0,ExtBa=13.56
24/08/2022,02:09:38,TEMP=19.2,BA=5.24,STAT.A=0.0,ExtBa=13.56
24/08/2022,02:14:07,TEMP=19.5,BA=5.24,STAT.A=0.0,ExtBa=13.56
24/08/2022,02:19:06,TEMP=20.0,BA=5.24,STAT.A=0.0,ExtBa=13.55
24/08/2022,02:24:47,TEMP=20.5,BA=5.28,STAT.A=0.0,ExtBa=13.56
24/08/2022,02:31:14,TEMP=21.2,BA=5.52,STAT.C=0.5,ExtBa=13.60
24/08/2022,02:45:51,TEMP=22.7,BA=5.32,STAT.A=0.5,ExtBa=13.56
24/08/2022,02:47:57,TEMP=22.9,BA=5.32,STAT.A=0.5,ExtBa=13.56
24/08/2022,02:57:37,TEMP=22.0,BA=5.36,STAT.A=0.5,ExtBa=13.56
24/08/2022,03:10:02,TEMP=22.4,BA=5.52,STAT.A=0.5,ExtBa=13.71
24/08/2022,03:25:21,TEMP=23.8,BA=5.56,STAT.B=0.5,ExtBa=13.90
24/08/2022,03:56:59,TEMP=25.0,BA=5.52,STAT.B=0.5,ExtBa=13.93
24/08/2022,03:58:51,TEMP=25.4,BA=5.52,STAT.D=0.5,ExtBa=14.17
24/08/2022,04:12:37,TEMP=26.6,BA=5.60,STAT.D=0.5,ExtBa=14.17
24/08/2022,04:27:39,TEMP=28.0,BA=5.56,STAT.F,ExtBa=14.31
24/08/2022,04:42:38,TEMP=30.3,BA=5.36,STAT.D=1.0,ExtBa=13.78
24/08/2022,04:57:38,TEMP=30.2,BA=5.52,STAT.D=1.0,ExtBa=13.98
24/08/2022,05:12:38,TEMP=29.7,BA=5.56,STAT.D=1.0,ExtBa=14.16
24/08/2022,05:27:40,TEMP=29.4,BA=5.52,STAT.F,ExtBa=14.08
24/08/2022,05:42:38,TEMP=29.6,BA=5.56,STAT.D=1.0,ExtBa=14.08
24/08/2022,05:57:38,TEMP=31.5,BA=5.64,STAT.D=1.0,ExtBa=14.07
24/08/2022,06:12:38,TEMP=32.8,BA=5.60,STAT.D=1.0,ExtBa=14.49
24/08/2022,06:27:40,TEMP=32.5,BA=5.52,STAT.F,ExtBa=13.99
24/08/2022,06:42:38,TEMP=32.7,BA=5.56,STAT.D=1.0,ExtBa=14.22
24/08/2022,06:57:38,TEMP=33.7,BA=5.52,STAT.D=1.0,ExtBa=14.47
24/08/2022,07:12:39,TEMP=33.7,BA=5.52,STAT.D=1.0,ExtBa=14.23
24/08/2022,07:27:40,TEMP=34.9,BA=5.52,STAT.F,ExtBa=13.99
24/08/2022,07:42:38,TEMP=34.1,BA=5.48,STAT.D=1.0,ExtBa=14.07
24/08/2022,07:57:38,TEMP=33.8,BA=5.48,STAT.D=1.0,ExtBa=14.45
24/08/2022,08:12:38,TEMP=34.0,BA=5.48,STAT.D=1.0,ExtBa=13.98
24/08/2022,08:27:40,TEMP=33.5,BA=5.48,STAT.F,ExtBa=14.63
24/08/2022,08:42:38,TEMP=34.7,BA=5.48,STAT.D=1.5,ExtBa=14.50
24/08/2022,08:57:38,TEMP=35.3,BA=5.48,STAT.D=1.5,ExtBa=14.16
24/08/2022,09:12:38,TEMP=35.5,BA=5.44,STAT.D=1.5,ExtBa=13.93
24/08/2022,09:27:40,TEMP=34.5,BA=5.44,STAT.F,ExtBa=13.78
24/08/2022,09:42:38,TEMP=33.2,BA=5.44,STAT.D=1.0,ExtBa=14.07
24/08/2022,09:57:37,TEMP=33.1,BA=5.44,STAT.D=1.0,ExtBa=13.91
24/08/2022,10:12:38,TEMP=33.0,BA=5.44,STAT.D=1.0,ExtBa=13.81
24/08/2022,10:27:39,TEMP=32.4,BA=5.44,STAT.F,ExtBa=13.76
24/08/2022,10:42:38,TEMP=31.7,BA=5.44,STAT.D=1.0,ExtBa=13.57
24/08/2022,10:57:37,TEMP=30.8,BA=5.44,STAT.D=1.0,ExtBa=13.57
24/08/2022,10:59:34,TEMP=31.1,BA=5.44,STAT.B=1.0,ExtBa=13.57
24/08/2022,11:29:56,TEMP=29.6,BA=5.48,STAT.B=1.0,ExtBa=13.56
24/08/2022,11:45:14,TEMP=29.4,BA=5.48,STAT.A=1.0,ExtBa=13.56
24/08/2022,11:57:40,TEMP=28.9,BA=5.40,STAT.A=1.0,ExtBa=13.56
24/08/2022,12:07:54,TEMP=28.4,BA=5.40,STAT.A=1.0,ExtBa=13.56
24/08/2022,12:16:36,TEMP=28.1,BA=5.40,STAT.A=1.0,ExtBa=13.56
24/08/2022,12:24:01,TEMP=28.0,BA=5.40,STAT.C=1.0,ExtBa=13.56
24/08/2022,12:30:28,TEMP=28.1,BA=5.52,STAT.A=1.0,ExtBa=13.59
24/08/2022,12:36:08,TEMP=28.5,BA=5.52,STAT.A=1.0,ExtBa=13.56
24/08/2022,12:41:07,TEMP=28.6,BA=5.52,STAT.A=1.0,ExtBa=13.56
24/08/2022,12:45:36,TEMP=28.5,BA=5.52,STAT.A=1.0,ExtBa=13.56
24/08/2022,12:49:35,TEMP=28.4,BA=5.52,STAT.B=1.0,ExtBa=13.56
24/08/2022,12:57:58,TEMP=27.9,BA=5.36,STAT.A=1.0,ExtBa=13.56
24/08/2022,13:04:38,TEMP=27.7,BA=5.40,STAT.A=1.0,ExtBa=13.56
24/08/2022,13:10:08,TEMP=27.6,BA=5.32,STAT.A=1.0,ExtBa=13.56
24/08/2022,13:14:39,TEMP=27.5,BA=5.32,STAT.A=1.0,ExtBa=13.56
24/08/2022,13:18:33,TEMP=27.5,BA=5.32,STAT.A=0.5,ExtBa=13.56
24/08/2022,13:21:48,TEMP=27.6,BA=5.32,STAT.A=0.5,ExtBa=13.56